Terug naar catalogus

BREEZE-KM R/B

ActiefPO
NORAD 41580·ROCKET BODY·🇷🇺 Russia

Gelanceerd Jun 4, 2016 vanaf Plesetsk Cosmodrome

Loading…

Volgende Passages (komende 24 uur)

TLE

VersSource: Space-Track

Epoch: Sep 14, 2026, 08:48 UTC

1 41580U 16034B   26257.36711762  .00000022  00000-0  26116-4 0  9991
2 41580  99.1660 127.7795 0209099 292.5474  65.3696 14.25931444534690

Volg BREEZE-KM R/B in realtime met AllMySat

Download on the App Store